Vertical_Velocity
-1 0 -1 -1 -2 -2 -2 -1 0 1 -1 -0 3 1 1 -2 -2 -2 -25 12 4 0 1 2 2 2 2 3 5 4 2 -5 -5 2 1 -1 -1 3 -2 -0 -4 -2 -1 -1 -1
-2 -3 -1 -2 -2 -2 -1 -0 1 2 -1 -4 -3 0 0 -0 -5 -17 18 7 2 4 -3 3 4 5 -3 3 3 2 -4 -4 -1 5 1 -3 -1 5 1 -1 -5 -2 -2 -1 -1
-3 -2 -1 -7 -6 -2 -1 0 -2 -5 3 -0 -3 -2 2 4 -9 -29 17 -1 -5 8 -3 3 7 2 -0 4 0 -1 -12 4 -0 2 1 2 3 -2 -0 -2 -3 -6 -0 -0 -0
-3 -3 -3 3 -1 -5 -5 -3 -1 -2 -3 0 -1 -3 2 3 -31 -25 6 1 -3 10 4 1 4 2 -4 -8 5 -1 3 -0 6 1 2 1 3 3 1 1 5 6 4 -1 -3
-1 -0 -2 -1 -1 3 -1 -3 -2 -0 -2 -3 -2 -3 -0 -8 -52 4 6 2 1 -0 3 4 -0 11 -1 -7 7 -5 3 -2 10 3 1 2 2 2 -3 4 0 1 -2 -0 -1
2 -2 0 -3 -2 -2 -5 -1 -0 0 -1 0 -2 -3 -8 -50 13 26 13 -2 6 2 3 2 -0 2 10 -1 6 -10 6 -1 5 4 1 -0 3 3 4 -3 4 2 2 1 0
-3 -1 -2 -1 0 -3 -1 -1 2 3 0 -1 2 -4 -19 -37 5 7 -7 6 -0 5 4 6 7 3 5 6 5 -5 4 5 -3 -5 -3 11 -0 -12 3 -0 -0 -0 -0 -1 0
-3 -3 -2 -0 -2 -7 -6 -4 -4 -3 0 -1 1 -5 -50 11 16 -12 22 10 3 6 9 4 6 5 -2 9 2 1 9 4 2 -0 -6 20 -25 2 3 -0 -1 -0 -1 -2 -1
4 -1 -5 -5 1 1 -5 -4 -5 0 -0 -1 -4 -8 -34 1 -3 17 -4 -7 21 3 5 10 10 8 6 2 6 -4 -1 -2 -1 2 1 9 -15 -2 6 -1 -2 -2 -1 -1 3
-1 -1 2 -4 1 -9 -3 -4 -3 -5 -5 -1 -4 2 4 0 -6 7 6 13 9 19 11 3 4 2 5 5 -30 -8 -2 -8 -4 -11 -1 1 -17 3 -3 -2 -2 3 -1 -1 -3
-4 -1 -0 -1 5 1 -3 -9 -1 -0 3 -3 -2 -17 -0 17 -4 8 0 16 12 17 -2 5 12 -34 -16 6 -0 5 2 0 -6 3 6 10 -7 6 6 -7 -3 0 -2 -2 -7
0 -3 -3 -2 -1 -4 1 -2 -6 -7 -47 6 9 -23 1 17 -35 -2 9 7 8 -24 12 24 -14 -21 16 10 6 3 -2 -4 -1 7 7 3 -8 -5 -1 -5 -8 -2 -0 -8 0
-3 -2 -2 0 -3 -1 -0 -2 -1 -2 -4 -27 5 -11 4 7 -5 -13 -5 15 -7 11 8 -3 -39 10 11 9 7 1 -12 -1 1 3 4 2 -9 -15 -1 -5 -3 -4 -3 -1 -9
-3 -3 -2 -4 -3 -1 -0 -0 -1 -2 -8 -24 -2 5 5 6 -31 31 -5 -2 8 -19 12 -2 41 4 16 -5 10 -1 5 12 4 5 -1 7 -9 -13 -2 -2 -7 -1 -1 -5 -4
-2 -5 0 -2 -1 3 -5 -7 -2 2 -1 4 4 6 5 6 6 3 30 29 1 -10 9 -75 -3 -4 3 -69 21 -17 4 3 9 0 12 -5 10 -26 -3 -4 -7 -8 -10 -1 3
-0 -3 0 0 -1 0 -0 -0 -4 -1 -17 -6 0 -0 -3 0 -4 -5 9 13 15 12 15 -27 27 25 -25 2 6 10 9 13 12 12 5 -17 12 -20 -17 -1 -15 -3 -2 -0 3
-0 -1 -1 -3 1 -2 -1 3 -2 -2 6 -1 1 -1 4 0 -11 1 14 17 -13 21 -0 7 3 -2 -3 16 10 11 13 2 6 7 -16 2 18 -37 -1 -3 -19 -2 9 4 6
-2 -0 -0 5 -1 1 -1 0 3 0 -7 -5 -8 -12 8 -3 -0 -10 5 5 7 29 3 0 23 8 -15 -19 -32 -32 -17 -12 -5 -3 -10 8 -5 -23 -15 -11 -15 4 4 1 -2
-1 0 -2 2 -0 3 1 -1 -9 0 -3 2 -13 -1 2 10 -5 -16 -8 -4 16 51 -3 8 0 2 -7 14 -1 -20 15 -28 4 3 2 -1 -12 -6 -2 -11 -12 -15 -3 -1 -2
-1 -1 -2 0 1 1 3 -4 -9 0 3 7 3 5 2 -5 -3 -7 -14 5 -5 -1 38 -4 7 -4 23 34 13 -11 4 25 15 0 -1 -1 0 -16 -10 -17 -16 -11 -9 2 1
2 1 -4 -4 -2 3 -5 -5 -4 6 5 -1 -3 -4 -1 -3 1 1 -13 -13 3 -6 15 -2 22 -0 18 7 -20 13 16 16 -1 -2 -4 -1 -12 -15 -7 -10 -6 -4 -1 5 4
5 2 -1 -1 0 2 -2 -2 3 -1 8 -0 -2 12 2 1 -2 5 -4 -3 -13 2 -4 17 13 7 -25 3 1 11 -10 -4 -0 1 -6 2 -15 -2 -0 5 5 2 -1 4 5
10 -1 -4 1 -3 -4 -2 -3 -0 -2 4 -1 -3 3 12 2 9 1 3 -8 -14 -2 -12 -2 8 -3 15 26 17 5 13 4 2 27 -10 2 -13 -4 -1 -0 -4 -2 -1 5 4
8 -0 5 5 -3 3 -2 -3 -2 3 -5 8 -5 1 5 -1 7 10 -2 9 7 1 1 -2 -5 -1 0 -0 25 -2 -11 -6 6 15 -16 -22 -7 4 -8 -1 -4 -3 -1 -3 3
-7 -8 -4 -9 -8 -3 8 2 -4 1 -1 4 5 4 8 11 -3 1 4 -1 3 3 1 -1 1 7 4 -4 -3 26 -12 -0 -3 -32 0 -38 -22 18 -3 -8 -12 1 5 -1 0
0 1 2 1 -3 -3 7 -3 -1 -2 9 -11 -5 2 5 0 5 -15 -5 20 -7 -3 -2 32 -3 -7 -11 2 4 2 8 13 -2 11 14 13 -32 28 -2 -5 -11 -7 -2 3 4
4 2 3 1 4 3 -13 -4 -2 7 -4 -3 13 -7 -2 9 3 -3 0 -11 -6 -6 -4 -1 1 -4 -11 1 -5 2 -18 -4 -5 23 -25 -1 -105 18 -7 -0 -6 -2 -9 -15 -6
Height
3097 3093 3090 3087 3084 3082 3080 3079 3077 3076 3074 3074 3073 3074 3074 3075 3078 3079 3085 3092 3091 3090 3090 3092 3093 3093 3093 3094 3095 3097 3098 3096 3099 3102 3104 3104 3106 3109 3112 3115 3118 3120 3121 3122 3122
3090 3087 3083 3079 3077 3074 3072 3070 3069 3067 3065 3065 3065 3065 3065 3065 3066 3066 3086 3082 3082 3085 3084 3086 3088 3088 3088 3090 3091 3091 3090 3091 3097 3100 3101 3102 3104 3107 3109 3111 3114 3117 3118 3119 3120
3084 3081 3077 3074 3071 3067 3064 3062 3061 3059 3057 3056 3056 3056 3056 3057 3055 3057 3074 3070 3074 3078 3079 3080 3081 3082 3082 3084 3085 3085 3082 3090 3094 3097 3098 3099 3102 3103 3106 3107 3110 3113 3115 3117 3118
3076 3072 3068 3065 3062 3060 3058 3055 3054 3050 3049 3048 3048 3047 3047 3048 3046 3054 3059 3061 3068 3070 3071 3073 3074 3074 3075 3076 3080 3080 3080 3086 3091 3093 3094 3095 3097 3098 3100 3104 3108 3110 3112 3114 3115
3069 3065 3061 3058 3054 3051 3050 3047 3045 3043 3042 3041 3039 3038 3037 3037 3037 3052 3051 3053 3057 3060 3062 3065 3067 3069 3068 3073 3075 3074 3077 3081 3087 3088 3090 3090 3092 3094 3095 3100 3102 3105 3107 3109 3112
3061 3057 3054 3051 3047 3044 3041 3038 3037 3035 3033 3032 3031 3030 3028 3026 3037 3043 3045 3046 3047 3050 3054 3055 3059 3064 3065 3065 3067 3069 3073 3075 3078 3082 3084 3086 3088 3087 3092 3094 3098 3100 3103 3105 3107
3055 3051 3047 3043 3039 3035 3033 3031 3029 3027 3025 3023 3023 3019 3017 3018 3023 3026 3033 3037 3041 3042 3046 3048 3053 3056 3058 3060 3062 3066 3066 3068 3069 3075 3077 3081 3078 3078 3088 3089 3092 3095 3097 3100 3103
3048 3043 3040 3035 3031 3027 3024 3022 3020 3018 3016 3015 3014 3010 2999 3011 3013 3015 3025 3029 3033 3036 3039 3042 3045 3047 3049 3054 3057 3059 3061 3058 3062 3067 3070 3075 3063 3076 3083 3084 3086 3089 3091 3094 3096
3044 3038 3033 3029 3024 3019 3016 3013 3011 3009 3007 3005 3004 3001 2991 2999 2999 3007 3011 3017 3025 3028 3031 3036 3037 3038 3044 3046 3050 3051 3048 3051 3056 3061 3065 3065 3060 3069 3077 3078 3080 3083 3086 3088 3090
3038 3033 3029 3023 3017 3012 3008 3004 3003 2999 2997 2996 2994 2994 2988 2990 2989 2993 2999 3004 3013 3017 3022 3025 3027 3028 3032 3036 3027 3034 3041 3046 3049 3055 3059 3057 3055 3062 3068 3071 3074 3077 3080 3081 3082
3031 3028 3024 3019 3013 3007 3002 2996 2997 2994 2991 2989 2986 2977 2978 2981 2980 2980 2988 2990 3000 3006 3009 3014 3014 3012 3016 3022 3029 3035 3039 3042 3045 3050 3052 3050 3053 3055 3061 3063 3066 3069 3071 3073 3075
3023 3020 3016 3012 3009 3004 2998 2994 2990 2986 2972 2979 2976 2971 2969 2976 2969 2975 2981 2984 2987 2991 2999 3003 2997 3006 3019 3022 3025 3029 3033 3036 3042 3045 3047 3046 3045 3048 3052 3053 3056 3059 3061 3065 3068
3017 3014 3009 3005 3003 3001 2996 2993 2989 2985 2975 2967 2963 2960 2960 2961 2959 2966 2975 2976 2978 2980 2987 2989 2992 3004 3008 3013 3017 3020 3022 3030 3036 3039 3042 3043 3037 3039 3042 3045 3048 3049 3053 3056 3059
3010 3007 3003 2998 2999 2995 2992 2990 2988 2984 2974 2961 2959 2957 2956 2953 2949 2956 2963 2969 2972 2972 2983 2984 2991 2996 2997 3002 3012 3013 3015 3027 3033 3037 3037 3040 3029 3029 3033 3035 3038 3042 3045 3049 3053
3001 2999 2997 2992 2991 2990 2986 2985 2986 2985 2982 2962 2960 2957 2954 2953 2952 2948 2958 2959 2961 2965 2974 2974 2977 2986 2989 2990 3003 3002 3019 3022 3027 3030 3032 3034 3032 3014 3023 3023 3030 3035 3039 3043 3048
2994 2992 2990 2987 2986 2984 2981 2982 2983 2986 2974 2960 2958 2956 2952 2950 2948 2946 2950 2955 2957 2961 2964 2966 2973 2979 2981 2992 3000 3008 3016 3020 3023 3027 3029 3017 3026 3004 3011 3013 3023 3030 3033 3037 3041
2985 2985 2983 2981 2981 2978 2978 2979 2982 2977 2965 2959 2955 2953 2949 2946 2945 2944 2944 2947 2949 2949 2955 2958 2964 2970 2977 2986 2995 3001 3008 3014 3020 3020 3013 3009 3015 2998 3003 3008 3014 3021 3026 3031 3034
2977 2977 2976 2975 2974 2973 2972 2975 2975 2963 2960 2958 2954 2950 2949 2944 2942 2941 2938 2938 2942 2939 2943 2947 2952 2958 2963 2970 2978 2984 2991 2994 3002 3010 2996 3000 2994 2988 2998 3005 3009 3013 3017 3022 3026
2970 2969 2970 2969 2968 2967 2967 2966 2960 2959 2957 2956 2951 2947 2946 2944 2943 2940 2938 2935 2936 2936 2943 2938 2943 2945 2951 2962 2969 2975 2981 2987 2993 2996 2995 2986 2987 2988 2994 2997 3002 3007 3011 3014 3017
2964 2963 2963 2962 2961 2961 2961 2957 2954 2955 2955 2953 2950 2948 2944 2943 2944 2942 2938 2934 2931 2929 2930 2932 2936 2937 2945 2958 2960 2966 2973 2983 2986 2990 2992 2978 2977 2976 2983 2991 2997 3000 3003 3008 3011
2955 2955 2957 2955 2955 2955 2952 2949 2949 2951 2951 2948 2945 2942 2940 2941 2942 2942 2938 2934 2929 2928 2922 2927 2928 2929 2938 2934 2944 2957 2962 2971 2977 2978 2976 2977 2967 2972 2979 2986 2990 2993 2994 2999 3005
2946 2948 2948 2948 2950 2947 2946 2945 2946 2945 2946 2943 2941 2939 2937 2937 2937 2937 2934 2934 2931 2928 2928 2927 2920 2918 2921 2932 2941 2945 2948 2953 2960 2967 2967 2965 2962 2968 2973 2978 2983 2988 2993 2997 3001
2938 2939 2941 2942 2940 2940 2942 2940 2940 2940 2940 2939 2937 2936 2935 2934 2934 2931 2931 2931 2930 2928 2927 2925 2922 2919 2917 2926 2931 2934 2941 2948 2952 2959 2958 2964 2960 2967 2972 2976 2979 2984 2989 2994 2997
2933 2933 2933 2933 2934 2934 2935 2935 2935 2936 2935 2934 2933 2933 2931 2930 2931 2928 2926 2925 2924 2924 2924 2923 2922 2924 2921 2915 2924 2925 2930 2938 2945 2949 2952 2950 2953 2960 2967 2974 2979 2981 2986 2991 2994
2926 2926 2925 2925 2925 2928 2931 2929 2931 2932 2932 2932 2930 2930 2929 2925 2926 2926 2924 2922 2921 2919 2919 2918 2914 2919 2919 2915 2913 2915 2918 2925 2934 2940 2944 2942 2941 2951 2961 2969 2976 2980 2982 2985 2989
2917 2915 2918 2921 2922 2925 2925 2923 2925 2928 2928 2927 2927 2927 2926 2924 2925 2922 2922 2921 2919 2917 2914 2913 2913 2908 2900 2906 2909 2908 2912 2917 2925 2929 2938 2937 2935 2946 2956 2963 2966 2972 2977 2980 2983
2910 2910 2911 2913 2914 2917 2918 2919 2919 2922 2921 2922 2922 2921 2921 2922 2921 2920 2919 2917 2915 2914 2914 2911 2911 2911 2901 2903 2902 2900 2902 2910 2917 2921 2927 2926 2919 2940 2944 2948 2956 2964 2970 2975 2979